{"data":{"norad_id":64257,"intl_designator":"2025-120B","name":"STARLINK-34352","alt_names":[],"object_type":"PAYLOAD","status":"ACTIVE","operator":null,"country":"US","launch_date":"2025-06-04","launch_site_code":"AFWTR","launch_vehicle":null,"mission":null,"orbit_class":"UNKNOWN","rcs_meters":null,"size_class":null,"mass_kg":null,"dimensions":null,"purposes":["comms"],"wikipedia_slug":null,"has_3d_model":false,"image_url":null,"decayed_at":null,"tle_current":{"epoch":"2026-05-25T05:25:36.323040Z","epoch_age_seconds":66239,"freshness":"FRESH","line1":"1 64257U 25120B   26145.22611485  .00027073  00000+0  92277-3 0  9999","line2":"2 64257  53.1571 121.2298 0001381  88.3198 271.7961 15.30203170 55581","mean_motion":15.3020317,"eccentricity":0.0001381,"inclination_deg":53.1571,"raan_deg":121.2298,"arg_perigee_deg":88.3198,"mean_anomaly_deg":271.7961,"bstar":0.00092277,"rev_number":5558,"period_min":94.105150755896,"perigee_km":474.25915777339,"apogee_km":476.15205100073,"semimajor_km":6853.3426043871,"source":"CELESTRAK","updated_at":"2026-05-25T13:38:20.356511Z"}}}